Dewpoint
63 66 66 66 63 60 61 63 64 65 66 65 65 64 65 66 68 70 70 72 72 73 74 74 74 74 73 73 74 74 74 74 74 74 74 74 74 75 75 74 74 75 74 73 74 74 76 76 76 76 77 77 77 77 78 78 78 76 77 78 77 76 76
63 65 66 67 64 61 61 63 64 64 65 65 65 66 65 66 68 68 70 72 72 73 73 73 74 74 73 73 73 74 74 74 75 75 74 75 76 76 75 75 75 76 76 75 75 76 76 76 76 76 76 77 76 78 77 77 77 77 77 77 76 76 76
63 65 66 67 68 63 62 61 63 64 64 64 64 64 65 67 68 69 70 71 72 72 73 73 74 73 73 74 74 74 74 73 74 73 73 71 73 71 74 75 75 74 74 75 76 75 76 75 77 76 76 76 75 77 78 77 78 76 77 78 77 75 76
63 64 67 68 68 68 65 62 63 63 63 64 65 64 65 68 68 70 70 70 71 71 72 72 72 72 73 74 73 74 74 74 73 72 71 71 72 72 74 74 75 74 75 74 74 74 73 75 76 77 77 76 77 76 76 76 76 77 77 78 77 76 77
62 64 65 67 69 69 67 64 62 64 64 65 67 67 66 67 68 68 69 69 68 70 70 70 70 71 72 73 72 72 73 73 73 73 72 72 74 74 73 72 73 73 73 73 75 76 76 76 75 76 76 77 76 77 77 77 76 78 77 78 77 76 75
61 63 66 67 68 69 69 67 65 64 65 66 67 67 66 67 67 67 68 69 70 71 71 71 70 71 71 71 71 71 73 74 75 75 74 74 74 73 73 73 72 73 72 73 74 74 75 75 74 74 74 73 73 74 74 75 75 75 76 77 76 75 73
62 64 66 68 69 70 70 71 68 67 66 67 67 67 67 66 67 68 70 70 71 72 72 72 71 71 72 71 72 73 73 72 73 73 73 73 73 73 73 73 74 72 72 74 74 74 74 74 75 75 75 73 74 73 75 77 76 76 77 77 77 77 77
64 64 66 67 69 69 70 71 71 70 70 70 69 67 68 69 70 70 70 70 71 72 72 72 71 72 73 72 72 71 71 71 72 73 73 72 72 72 72 73 74 74 74 73 74 74 73 75 74 75 74 74 74 75 75 77 78 75 76 76 76 76 73
66 66 66 66 67 69 68 69 71 71 71 71 71 71 71 71 70 70 70 71 71 71 72 71 71 72 73 73 72 72 71 71 72 72 72 71 70 70 70 71 72 74 73 72 72 74 74 74 73 75 76 75 75 76 76 77 76 76 76 76 77 76 74
67 67 67 68 68 68 68 69 71 70 70 70 70 70 71 69 68 71 72 72 71 71 72 72 72 72 73 73 73 72 71 72 71 70 70 70 70 70 70 70 71 73 72 71 70 71 74 74 74 75 77 75 76 76 76 76 75 75 76 77 77 76 77
66 67 67 67 67 68 68 69 69 68 69 70 70 71 71 72 71 71 73 72 72 73 74 74 74 73 73 73 72 73 72 70 70 70 70 70 69 69 69 70 70 72 72 71 70 71 72 74 75 75 76 73 74 75 76 75 76 76 75 75 76 76 75
65 66 66 67 68 68 67 68 69 69 69 69 70 70 70 70 71 72 72 71 73 72 72 72 74 74 72 73 72 73 74 72 71 71 70 70 69 69 69 70 70 70 71 71 71 72 71 72 73 73 75 75 74 74 75 76 76 76 76 74 75 76 75
64 65 65 66 67 67 67 67 67 68 69 69 69 70 70 70 70 71 71 71 72 72 73 73 73 73 74 74 73 73 73 73 73 72 70 71 70 70 70 70 70 70 70 71 71 71 70 70 72 73 73 74 74 73 74 75 75 76 77 76 76 76 76
63 63 64 65 65 66 66 66 67 67 68 69 69 69 69 71 72 71 71 71 72 72 73 73 74 73 73 74 74 74 73 73 73 72 73 74 74 73 71 70 70 71 71 71 71 70 70 69 70 71 71 72 73 73 74 75 74 76 77 76 75 75 75
61 62 62 63 65 66 66 66 67 68 68 69 69 69 70 70 70 71 70 71 71 72 72 73 73 73 72 72 72 72 73 73 74 75 75 75 75 75 74 72 72 72 72 72 71 69 70 70 69 69 70 70 71 72 72 70 71 72 74 75 75 75 73
60 61 62 62 63 64 65 65 66 66 67 67 68 68 69 70 69 69 70 71 71 71 71 73 73 72 71 71 72 72 72 72 73 74 74 75 75 75 75 73 72 71 71 71 71 72 72 72 71 70 69 69 71 71 70 70 70 74 72 73 73 74 72
60 60 61 62 62 63 63 64 64 64 65 65 66 66 67 67 67 68 69 69 70 71 72 72 71 71 71 71 72 72 72 72 71 72 73 73 73 73 73 73 72 72 73 72 72 72 73 71 71 70 69 69 69 69 68 68 68 71 67 66 68 73 73
59 59 60 60 61 62 62 62 62 63 62 63 63 65 65 66 67 67 68 68 69 70 71 71 70 70 71 71 71 72 71 71 71 71 72 73 72 71 72 72 72 73 73 72 71 73 71 70 70 71 70 69 69 68 67 68 71 66 65 65 65 69 73
58 58 59 60 60 60 60 59 59 59 58 58 59 60 60 61 62 63 65 66 67 69 69 69 69 69 70 71 71 71 71 71 71 71 72 72 71 69 69 71 72 72 72 72 72 71 72 72 71 71 70 69 70 68 68 67 67 64 64 64 63 64 69
57 57 58 59 58 58 58 56 56 57 57 57 58 58 59 60 59 59 61 62 64 65 65 66 66 66 66 67 68 70 71 71 71 71 71 71 71 70 69 70 71 73 74 73 74 73 72 71 71 71 73 72 72 72 70 69 69 64 62 61 62 62 65
56 57 57 57 57 57 58 58 56 56 56 56 57 57 56 57 58 59 59 60 61 62 63 63 63 64 65 65 66 67 67 67 68 69 70 71 71 71 71 71 72 72 72 72 71 71 72 71 71 71 71 70 70 70 69 67 67 63 61 60 59 60 64
56 56 56 56 56 56 56 57 56 56 56 56 55 55 55 56 56 56 57 58 58 59 60 61 62 62 63 63 64 65 66 67 67 67 68 68 70 70 69 70 71 71 73 73 73 72 72 72 72 71 72 72 71 70 70 69 65 64 62 60 59 60 67
54 54 54 54 54 54 55 55 55 55 57 57 55 56 56 57 58 58 58 59 59 60 60 60 60 61 62 62 63 64 64 65 66 66 67 67 66 66 67 67 69 71 72 72 73 73 74 73 72 73 72 72 72 72 72 72 67 62 61 60 59 62 70
51 52 52 53 54 54 55 55 54 55 54 54 55 56 57 57 58 58 57 57 57 57 58 59 60 60 60 61 62 63 64 64 64 65 65 66 66 67 68 68 69 68 70 71 72 72 72 72 72 72 72 72 72 72 72 72 70 63 60 58 59 65 71
50 50 51 52 52 52 53 54 54 54 54 54 53 55 55 56 57 55 55 55 54 56 57 58 59 59 59 60 61 62 63 64 63 64 64 65 66 67 67 68 68 69 70 70 70 70 72 71 71 71 72 72 72 73 72 72 69 62 59 57 58 65 72
50 50 51 51 52 53 54 56 54 53 52 52 53 53 55 53 54 56 54 53 53 53 55 57 58 59 60 60 60 60 61 61 63 63 63 64 64 65 66 68 68 68 69 69 70 70 70 71 70 69 70 70 70 70 71 72 71 65 55 54 55 59 72
49 50 50 50 51 54 51 52 51 52 53 54 54 52 52 52 53 54 55 54 53 53 54 57 59 59 60 60 59 59 60 59 61 61 62 62 64 65 65 66 68 68 68 69 70 70 70 69 69 70 71 71 71 71 71 71 70 65 54 53 55 58 64
49 50 50 53 54 52 50 50 51 51 51 53 52 52 52 53 55 55 55 53 53 53 54 56 58 58 59 59 59 59 60 60 60 60 60 62 63 63 64 65 65 66 67 69 69 69 69 69 69 70 70 70 71 71 72 70 68 69 57 54 54 57 61
52 51 50 51 50 50 49 50 49 49 50 50 51 52 51 52 55 54 54 54 55 54 55 55 56 58 58 58 58 58 58 58 59 59 59 60 61 62 62 64 64 65 65 66 66 67 67 68 69 69 69 68 70 71 71 71 71 68 68 56 52 52 53
53 50 49 48 48 49 50 50 49 49 50 51 52 53 54 55 54 54 54 55 56 55 54 55 56 57 57 57 57 56 57 57 57 58 59 60 61 62 62 62 63 62 63 65 65 65 65 65 66 67 66 65 65 67 69 71 70 66 64 64 56 55 54
51 51 54 50 52 52 50 49 49 48 49 50 52 53 54 54 53 53 54 56 57 56 55 55 55 54 54 55 56 56 55 55 56 56 57 57 59 59 59 60 62 61 62 62 62 63 63 64 64 64 65 65 65 66 68 69 70 69 67 65 63 59 57
52 51 49 51 52 51 51 49 49 49 50 51 51 52 54 52 52 53 54 55 55 55 54 55 55 55 56 55 55 55 54 53 51 52 54 55 56 57 56 57 58 60 60 60 59 60 62 62 63 63 63 64 64 65 65 66 67 66 66 66 65 65 63
51 51 50 49 51 52 51 49 51 51 51 52 52 51 51 52 52 55 56 56 52 53 55 55 55 56 55 55 53 54 55 54 51 50 51 53 52 54 55 56 56 57 58 57 57 58 59 59 60 61 61 62 62 63 64 64 65 64 64 66 66 66 66
50 50 52 52 52 52 52 51 51 52 52 53 54 54 53 52 52 54 54 53 53 54 56 56 55 54 55 53 54 53 53 53 55 54 51 52 53 52 53 53 53 53 54 55 54 54 54 55 57 57 58 59 61 62 63 62 62 62 61 62 61 62 63
51 51 52 52 52 52 52 52 52 52 53 53 54 55 55 55 54 54 56 56 56 56 55 55 56 56 55 54 54 54 55 54 53 53 51 52 53 53 55 52 52 54 55 55 55 54 53 54 54 55 55 57 60 61 61 61 60 62 51 57 50 55 58
51 50 51 51 52 53 53 53 53 52 53 53 54 54 54 54 54 54 53 54 55 55 54 55 54 53 52 53 52 52 52 53 51 52 52 50 50 52 53 56 53 53 54 55 56 53 49 47 55 55 56 58 60 61 59 59 60 51 45 44 43 43 43
52 51 51 51 52 53 53 53 54 54 54 54 54 53 52 52 52 53 53 53 52 52 53 53 53 52 50 52 51 52 52 51 51 53 54 53 52 52 53 51 59 47 48 51 54 50 45 45 45 46 49 56 56 57 56 54 50 45 44 42 42 41 41
52 52 50 51 52 53 53 53 53 53 54 54 53 53 52 51 51 52 50 51 50 50 51 51 51 51 50 50 51 52 53 50 52 52 52 52 53 53 53 54 54 55 50 50 51 50 47 46 46 46 46 47 49 55 58 55 49 43 42 42 41 41 40